Gwinn, MI

8:14 PM EDT on April 27, 2017 (GMT -0400)
Sawyer International

Weather History for KSAW - July, 2013

Change the Weather History Date:

Thursday, July 18, 2013

  Actual Average (KESC) Record (KESC)
Temperature  
Mean Temperature 75 °F -  
Max Temperature 82 °F 77 °F 93 °F (1966)
Min Temperature 68 °F 61 °F 39 °F (2003)
Cooling Degree Days 10    
Growing Degree Days 25 (Base 50)    
Moisture  
Dew Point 69 °F    
Average Humidity 87    
Maximum Humidity 94    
Minimum Humidity 70    
Precipitation  
Precipitation 0.00 in - - ()
Sea Level Pressure  
Sea Level Pressure 29.98 in    
Wind  
Wind Speed 4 mph (SSW)    
Max Wind Speed 15 mph    
Max Gust Speed 24 mph    
Visibility 10 miles    
Events Rain , Thunderstorm    
Averages and records for this station are not official NWS values.
T = Trace of Precipitation, MM = Missing Value Source: NWS Daily Summary

Daily Weather History Graph

Daily Weather History Graph

Search for Another Location

Airport or City:

Trip Planner

Search our weather history database for the weather conditions in past years. The results will help you decide how hot, cold, wet, or windy it might be!

Date:

Astronomy

Jul. 18, 2013 Rise Set
Actual Time 6:15 AM EDT 9:35 PM EDT
Civil Twilight 5:38 AM EDT 10:12 PM EDT
Nautical Twilight 4:50 AM EDT 11:00 PM EDT
Astronomical Twilight 3:48 AM EDT 12:01 AM EDT
Moon 5:30 PM EDT (7/18) 2:09 AM EDT (7/18)
Length of Visible Light 16h 33m
Length of Day
15h 20m
Waxing Gibbous, 77% of the Moon is Illuminated
Jul 18
Waxing Gibbous
Jul 22
Full
Jul 29
Last Quarter
Aug 6
New
Aug 14
First Quarter

Hourly Weather History & Observations

Time (EDT) Temp. Heat Index Dew Point Humidity Pressure Visibility Wind Dir Wind Speed Gust Speed Precip Events Conditions
12:15 AM 72.3 °F - 69.1 °F 89% 30.13 in 10.0 mi Calm Calm - N/A   Scattered Clouds
12:36 AM 72.0 °F - 68.9 °F 90% 30.12 in 10.0 mi SSE 3.5 mph - N/A   Scattered Clouds
12:56 AM 71.8 °F - 69.4 °F 92% 30.11 in 10.0 mi South 4.6 mph - N/A   Scattered Clouds
1:15 AM 71.2 °F - 68.9 °F 92% 30.10 in 10.0 mi Calm Calm - N/A   Scattered Clouds
1:36 AM 70.9 °F - 68.9 °F 93% 30.11 in 10.0 mi SW 3.5 mph - N/A   Scattered Clouds
1:56 AM 70.9 °F - 68.5 °F 92% 30.10 in 10.0 mi SW 4.6 mph - N/A Thunderstorm Scattered Clouds
2:15 AM 70.9 °F - 68.5 °F 92% 30.10 in 10.0 mi Calm Calm - N/A Thunderstorm Thunderstorm
2:36 AM 70.7 °F - 68.5 °F 93% 30.10 in 10.0 mi Calm Calm - N/A Thunderstorm Scattered Clouds
2:56 AM 70.0 °F - 68.2 °F 94% 30.12 in 10.0 mi NNE 12.7 mph - N/A Thunderstorm Scattered Clouds
3:16 AM 71.6 °F - 68.5 °F 90% 30.13 in 10.0 mi North 4.6 mph - N/A Thunderstorm Mostly Cloudy
3:36 AM 71.1 °F - 68.7 °F 92% 30.12 in 10.0 mi Calm Calm - N/A   Mostly Cloudy
3:56 AM 71.1 °F - 68.5 °F 92% 30.11 in 10.0 mi East 3.5 mph - N/A   Scattered Clouds
4:16 AM 70.7 °F - 68.5 °F 93% 30.10 in 10.0 mi Calm Calm - N/A   Scattered Clouds
4:36 AM 70.0 °F - 67.8 °F 93% 30.10 in 10.0 mi Calm Calm - N/A   Scattered Clouds
4:56 AM 69.3 °F - 66.6 °F 91% 30.09 in 10.0 mi SE 3.5 mph - N/A   Scattered Clouds
5:16 AM 68.9 °F - 66.6 °F 92% 30.09 in 10.0 mi Calm Calm - N/A   Clear
5:36 AM 68.5 °F - 66.4 °F 93% 30.09 in 10.0 mi SSW 3.5 mph - N/A   Scattered Clouds
5:55 AM 68.0 °F - 66.2 °F 94% 30.08 in 10.0 mi Calm Calm - N/A   Clear
6:50 AM 68.0 °F - 66.2 °F 94% 30.08 in 7.0 mi Calm Calm - N/A   Mostly Cloudy
7:50 AM 69.8 °F - 68.0 °F 94% 30.08 in 10.0 mi NNE 3.5 mph - N/A   Scattered Clouds
8:55 AM 69.8 °F - 68.0 °F 94% 30.11 in 4.0 mi SW 10.4 mph - N/A Rain Rain Showers
9:50 AM 69.8 °F - 68.0 °F 94% 30.06 in 3.0 mi SSE 8.1 mph - N/A Rain Rain
10:50 AM 71.6 °F - 69.8 °F 94% 30.04 in 10.0 mi Calm Calm - N/A Thunderstorm Overcast
11:50 AM 75.2 °F - 69.8 °F 83% 30.03 in 10.0 mi South 4.6 mph - N/A   Mostly Cloudy
12:50 PM 78.8 °F - 69.8 °F 74% 30.00 in 10.0 mi South 11.5 mph - N/A   Scattered Clouds
1:50 PM 82.4 °F 87.2 °F 71.6 °F 70% 29.97 in 10.0 mi SSW 9.2 mph 17.3 mph N/A   Scattered Clouds
2:50 PM 75.2 °F - 69.8 °F 83% 29.91 in 10.0 mi South 11.5 mph 17.3 mph N/A   Overcast
3:50 PM 80.6 °F 83.9 °F 69.8 °F 70% 29.88 in 10.0 mi South 15.0 mph 23.0 mph N/A   Mostly Cloudy
4:50 PM 78.8 °F - 73.4 °F 83% 29.85 in 10.0 mi South 9.2 mph 20.7 mph N/A Rain Light Rain
5:50 PM 82.4 °F 89.5 °F 75.2 °F 79% 29.82 in 10.0 mi South 13.8 mph - N/A   Scattered Clouds
6:50 PM 80.6 °F 84.6 °F 71.6 °F 74% 29.79 in 10.0 mi WSW 12.7 mph 24.2 mph N/A   Scattered Clouds
7:50 PM 75.2 °F - 69.8 °F 83% 29.79 in 10.0 mi NNE 8.1 mph - N/A Thunderstorm Scattered Clouds
8:50 PM 73.4 °F - 69.8 °F 88% 29.76 in 10.0 mi SSW 9.2 mph - N/A   Partly Cloudy
9:45 PM 75.2 °F - 69.8 °F 83% 29.75 in 10.0 mi SSW 9.2 mph - N/A   Partly Cloudy
10:16 PM 76.1 °F - 70.7 °F 83% 29.75 in 10.0 mi SSW 10.4 mph - N/A   Clear
10:35 PM 76.5 °F - 70.7 °F 82% 29.75 in 10.0 mi SW 9.2 mph - N/A   Clear
10:56 PM 77.0 °F - 70.3 °F 80% 29.75 in 10.0 mi SW 8.1 mph - N/A   Clear
11:16 PM 77.4 °F - 70.2 °F 78% 29.75 in 10.0 mi SW 8.1 mph - N/A   Clear
11:35 PM 77.5 °F - 70.0 °F 77% 29.75 in 10.0 mi SW 9.2 mph - N/A   Clear
11:56 PM 77.9 °F - 70.0 °F 76% 29.76 in 10.0 mi WSW 6.9 mph - N/A   Mostly Cloudy